Home   Weather   Kairouan   Past weeks

Flag for Tunisia Past Weather in Kairouan, Tunisia — Yesterday and Last 2 Weeks

Now
68 °F

Passing clouds.


Feels Like: 68 °F
Forecast: 52 / 79 °F
Wind: 12 mph from North

Location: Kairouan Airport

Current Time: Apr 29, 2017 at 10:54:36 am

Latest Report: Apr 29, 2017 at 10:00 am


Visibility: N/A

Pressure: 29.92 "Hg

Humidity: 40%

Dew Point: 43 °F

Location of KairouanLocation

Past Weather in Kairouan — Graph

°F

Kairouan Temperature Yesterday

Maximum temperature yesterday: 77 °F (at 1:00 pm)
Minimum temperature yesterday: 63 °F (at 6:00 am)
Average temperature yesterday: 69 °F

High & Low Weather Summary for the Past Weeks

 TemperatureHumidityPressure
High88 °F (Apr 15, 3:00 pm)94% (Apr 26, 7:00 am)30.33 "Hg (Apr 26, 7:00 am)
Low48 °F (Apr 22, 3:00 am)19% (Apr 14, 5:00 pm)29.77 "Hg (Apr 28, 4:00 pm)
Average67 °F48%30.02 "Hg
* Reported Apr 14 9:00 am — Apr 29 9:00 am, Kairouan, Weather by CustomWeather, © 2017

Note: Actual official high and low records may vary slightly from our data, if they occured in-between our weather recording intervals... More about our weather records

Advertising

Kairouan Weather History for the Previous 24 Hours

Scroll right to see more
 ConditionsComfort  
Time TempWeatherWind HumidityBarometerVisibility
9:00 am
Sat, Apr 29
66 °FPassing clouds.9 mph43%29.92 "HgN/A
8:00 am63 °FScattered clouds.9 mph49%29.89 "HgN/A
7:00 am59 °FPassing clouds.7 mph55%29.89 "Hg5 mi
6:00 am59 °FPassing clouds.6 mph51%29.86 "Hg5 mi
5:00 am59 °FPassing clouds.9 mph51%29.86 "Hg5 mi
4:00 am59 °FPassing clouds.9 mph55%29.86 "Hg5 mi
3:00 am61 °FRefreshingly cool.8 mph52%29.86 "HgN/A
2:00 am61 °FPassing clouds.9 mph55%29.86 "Hg5 mi
1:00 am61 °FPassing clouds.8 mph59%29.86 "Hg5 mi
12:00 am61 °FPassing clouds.10 mph59%29.86 "Hg5 mi
11:00 pm
Fri, Apr 28
63 °FPassing clouds.8 mph59%29.86 "Hg5 mi
10:00 pm64 °FPassing clouds.8 mph56%29.86 "Hg5 mi
9:00 pm66 °FPassing clouds.5 mph52%29.83 "Hg5 mi
8:00 pm66 °FPassing clouds.7 mph56%29.80 "Hg5 mi
7:00 pm68 °FPassing clouds.7 mph60%29.80 "Hg5 mi
6:00 pm70 °FPassing clouds.5 mph64%29.77 "Hg5 mi
5:00 pm73 °FPassing clouds.7 mph57%29.80 "Hg5 mi
4:00 pm75 °FScattered clouds.7 mph54%29.77 "Hg4 mi
3:00 pm75 °FScattered clouds.5 mph47%29.80 "Hg4 mi
2:00 pm75 °FPassing clouds.9 mph54%29.80 "Hg4 mi
1:00 pm77 °FPassing clouds.7 mph51%29.83 "Hg4 mi
12:00 pm75 °FPassing clouds.5 mph54%29.83 "Hg4 mi
11:00 am73 °FClear.5 mph57%29.86 "Hg4 mi
10:00 am72 °FClear.7 mph61%29.86 "Hg4 mi
Weather by CustomWeather, © 2017

See weather overviewHow to use our weather pages